TimeAKST,TemperatureF,Dew PointF,Humidity,Sea Level PressureIn,VisibilityMPH,Wind Direction,Wind SpeedMPH,Gust SpeedMPH,PrecipitationIn,Events,Conditions,WindDirDegrees,DateUTC
12:16 AM,32.0,28.4,87,29.89,10.0,Calm,Calm,-,N/A,,Mostly Cloudy,0,2011-12-17 09:16:00
12:36 AM,30.2,28.4,93,29.89,10.0,Calm,Calm,-,N/A,,Scattered Clouds,0,2011-12-17 09:36:00
12:56 AM,30.2,26.6,86,29.89,10.0,Calm,Calm,-,N/A,,Clear,0,2011-12-17 09:56:00
1:16 AM,30.2,26.6,86,29.89,9.0,Calm,Calm,-,N/A,,Clear,0,2011-12-17 10:16:00
1:36 AM,30.2,26.6,86,29.89,10.0,Calm,Calm,-,N/A,,Clear,0,2011-12-17 10:36:00
1:56 AM,28.4,26.6,93,29.89,10.0,Calm,Calm,-,N/A,,Clear,0,2011-12-17 10:56:00
2:16 AM,28.4,26.6,93,29.89,10.0,North,3.5,-,N/A,,Clear,10,2011-12-17 11:16:00
2:36 AM,28.4,26.6,93,29.89,10.0,Calm,Calm,-,N/A,,Clear,0,2011-12-17 11:36:00
2:56 AM,28.4,24.8,86,29.89,10.0,Calm,Calm,-,N/A,,Clear,0,2011-12-17 11:56:00
3:16 AM,28.4,26.6,93,29.89,10.0,Calm,Calm,-,N/A,,Clear,0,2011-12-17 12:16:00
3:36 AM,28.4,26.6,93,29.89,10.0,Calm,Calm,-,N/A,,Clear,0,2011-12-17 12:36:00
3:56 AM,28.4,24.8,86,29.89,10.0,East,3.5,-,N/A,,Clear,90,2011-12-17 12:56:00
4:16 AM,28.4,26.6,93,29.90,10.0,SE,3.5,-,N/A,,Scattered Clouds,140,2011-12-17 13:16:00
4:36 AM,30.2,26.6,86,29.89,10.0,ESE,3.5,-,N/A,,Mostly Cloudy,120,2011-12-17 13:36:00
4:56 AM,30.2,28.4,93,29.89,10.0,ENE,3.5,-,N/A,,Mostly Cloudy,60,2011-12-17 13:56:00
5:16 AM,32.0,28.4,87,29.89,10.0,East,8.1,-,N/A,,Overcast,100,2011-12-17 14:16:00
5:36 AM,33.8,30.2,87,29.89,10.0,ESE,8.1,-,N/A,,Overcast,120,2011-12-17 14:36:00
5:56 AM,35.6,30.2,81,29.88,10.0,ESE,11.5,-,N/A,,Overcast,120,2011-12-17 14:56:00
6:16 AM,35.6,30.2,81,29.88,10.0,SE,10.4,-,N/A,,Overcast,140,2011-12-17 15:16:00
6:36 AM,35.6,30.2,81,29.89,10.0,SE,9.2,-,N/A,,Overcast,130,2011-12-17 15:36:00
6:56 AM,35.6,30.2,81,29.90,10.0,SSE,4.6,-,N/A,,Overcast,160,2011-12-17 15:56:00
7:16 AM,35.6,30.2,81,29.89,10.0,SSE,6.9,-,N/A,,Overcast,150,2011-12-17 16:16:00
7:36 AM,35.6,30.2,81,29.90,10.0,ESE,5.8,-,N/A,,Overcast,120,2011-12-17 16:36:00
7:56 AM,35.6,30.2,81,29.90,10.0,SSE,8.1,-,N/A,,Overcast,160,2011-12-17 16:56:00
8:16 AM,35.6,30.2,81,29.90,10.0,ESE,5.8,-,N/A,,Overcast,120,2011-12-17 17:16:00
8:36 AM,35.6,30.2,81,29.91,10.0,SE,6.9,-,N/A,,Overcast,140,2011-12-17 17:36:00
8:56 AM,35.6,30.2,81,29.91,10.0,SE,4.6,-,N/A,,Overcast,140,2011-12-17 17:56:00
9:16 AM,35.6,30.2,81,29.92,10.0,SE,9.2,-,N/A,,Overcast,130,2011-12-17 18:16:00
9:36 AM,35.6,30.2,81,29.92,10.0,SE,10.4,-,N/A,,Overcast,140,2011-12-17 18:36:00
9:56 AM,37.4,30.2,75,29.93,10.0,SE,6.9,-,N/A,,Overcast,140,2011-12-17 18:56:00
10:16 AM,37.4,32.0,81,29.94,10.0,ESE,11.5,-,N/A,,Overcast,120,2011-12-17 19:16:00
10:36 AM,37.4,32.0,81,29.94,10.0,SE,11.5,-,N/A,,Overcast,130,2011-12-17 19:36:00
10:56 AM,37.4,32.0,81,29.95,10.0,ESE,9.2,-,N/A,,Overcast,120,2011-12-17 19:56:00
11:16 AM,37.4,32.0,81,29.95,10.0,SE,10.4,-,N/A,,Overcast,130,2011-12-17 20:16:00
11:36 AM,37.4,32.0,81,29.95,10.0,ESE,9.2,-,N/A,,Overcast,120,2011-12-17 20:36:00
11:56 AM,37.4,32.0,81,29.96,10.0,ESE,9.2,-,N/A,,Overcast,120,2011-12-17 20:56:00
12:16 PM,37.4,32.0,81,29.96,10.0,SE,8.1,-,N/A,,Overcast,130,2011-12-17 21:16:00
12:36 PM,37.4,32.0,81,29.96,10.0,ESE,11.5,-,N/A,,Overcast,120,2011-12-17 21:36:00
12:56 PM,37.4,32.0,81,29.97,10.0,SE,9.2,-,N/A,,Overcast,130,2011-12-17 21:56:00
1:16 PM,37.4,32.0,81,29.97,10.0,ESE,11.5,-,N/A,,Overcast,120,2011-12-17 22:16:00
1:36 PM,37.4,32.0,81,29.97,10.0,SE,12.7,-,N/A,,Overcast,130,2011-12-17 22:36:00
1:56 PM,37.4,32.0,81,29.98,10.0,ESE,12.7,-,N/A,,Mostly Cloudy,120,2011-12-17 22:56:00
2:16 PM,37.4,32.0,81,29.98,10.0,ESE,10.4,-,N/A,,Overcast,120,2011-12-17 23:16:00
2:36 PM,37.4,30.2,75,29.98,10.0,ESE,8.1,-,N/A,,Overcast,120,2011-12-17 23:36:00
2:56 PM,37.4,32.0,81,29.98,10.0,ESE,9.2,-,N/A,,Overcast,120,2011-12-17 23:56:00
3:16 PM,37.4,32.0,81,29.99,10.0,East,4.6,-,N/A,,Overcast,100,2011-12-18 00:16:00
3:36 PM,37.4,32.0,81,30.00,10.0,NNW,4.6,-,N/A,,Overcast,330,2011-12-18 00:36:00
3:56 PM,35.6,32.0,87,30.00,10.0,East,4.6,-,N/A,,Mostly Cloudy,100,2011-12-18 00:56:00
4:16 PM,35.6,32.0,87,30.00,10.0,ESE,5.8,-,N/A,,Overcast,110,2011-12-18 01:16:00
4:36 PM,37.4,32.0,81,30.01,10.0,ESE,5.8,-,N/A,,Overcast,110,2011-12-18 01:36:00
4:56 PM,37.4,30.2,75,30.01,10.0,East,8.1,-,N/A,,Mostly Cloudy,100,2011-12-18 01:56:00
5:16 PM,37.4,32.0,81,30.01,10.0,ESE,9.2,-,N/A,,Overcast,120,2011-12-18 02:16:00
5:36 PM,37.4,32.0,81,30.02,9.0,ESE,8.1,-,N/A,,Overcast,120,2011-12-18 02:36:00
5:56 PM,37.4,32.0,81,30.02,10.0,SE,9.2,-,N/A,,Overcast,130,2011-12-18 02:56:00
6:16 PM,37.4,32.0,81,30.03,10.0,South,3.5,-,N/A,,Overcast,170,2011-12-18 03:16:00
6:36 PM,37.4,32.0,81,30.04,10.0,East,5.8,-,N/A,,Overcast,90,2011-12-18 03:36:00
6:56 PM,35.6,32.0,87,30.05,10.0,East,5.8,-,N/A,,Overcast,100,2011-12-18 03:56:00
7:16 PM,37.4,33.8,87,30.05,10.0,ESE,4.6,-,N/A,,Overcast,110,2011-12-18 04:16:00
7:36 PM,35.6,32.0,87,30.05,8.0,ESE,9.2,-,N/A,,Overcast,110,2011-12-18 04:36:00
7:56 PM,35.6,32.0,87,30.06,10.0,SE,10.4,-,N/A,,Overcast,130,2011-12-18 04:56:00
8:16 PM,35.6,32.0,87,30.07,10.0,ESE,9.2,-,N/A,,Overcast,120,2011-12-18 05:16:00
8:36 PM,37.4,32.0,81,30.07,10.0,ESE,8.1,-,N/A,,Overcast,110,2011-12-18 05:36:00
8:56 PM,37.4,32.0,81,30.07,10.0,ESE,3.5,-,N/A,,Overcast,110,2011-12-18 05:56:00
9:16 PM,35.6,32.0,87,30.07,10.0,East,4.6,-,N/A,,Overcast,100,2011-12-18 06:16:00
9:36 PM,35.6,32.0,87,30.08,10.0,SE,3.5,-,N/A,,Overcast,130,2011-12-18 06:36:00
9:56 PM,35.6,33.8,93,30.09,10.0,NE,3.5,-,N/A,,Overcast,50,2011-12-18 06:56:00
10:16 PM,35.6,33.8,93,30.09,10.0,East,4.6,-,N/A,,Overcast,100,2011-12-18 07:16:00
10:36 PM,37.4,32.0,81,30.08,10.0,ESE,6.9,-,N/A,,Overcast,110,2011-12-18 07:36:00
10:56 PM,37.4,32.0,81,30.09,10.0,SE,8.1,-,N/A,,Overcast,130,2011-12-18 07:56:00
11:16 PM,37.4,32.0,81,30.09,10.0,SE,12.7,-,N/A,,Overcast,130,2011-12-18 08:16:00
11:36 PM,37.4,32.0,81,30.10,10.0,SE,10.4,16.1,N/A,,Overcast,140,2011-12-18 08:36:00
11:56 PM,37.4,32.0,81,30.10,10.0,ESE,11.5,16.1,N/A,,Overcast,110,2011-12-18 08:56:00